TimePDT,TemperatureF,Dew PointF,Humidity,Sea Level PressureIn,VisibilityMPH,Wind Direction,Wind SpeedMPH,Gust SpeedMPH,PrecipitationIn,Events,Conditions,WindDirDegrees,DateUTC
12:51 AM,64.0,59.0,84,29.87,10.0,Calm,Calm,-,N/A,,Clear,0,2013-07-08 07:51:00
1:51 AM,64.0,60.1,87,29.87,10.0,Calm,Calm,-,N/A,,Clear,0,2013-07-08 08:51:00
2:51 AM,64.0,60.1,87,29.86,10.0,Calm,Calm,-,N/A,,Clear,0,2013-07-08 09:51:00
3:51 AM,63.0,59.0,87,29.86,10.0,Calm,Calm,-,N/A,,Clear,0,2013-07-08 10:51:00
4:51 AM,63.0,59.0,87,29.87,9.0,Calm,Calm,-,N/A,,Clear,0,2013-07-08 11:51:00
5:51 AM,63.0,59.0,87,29.88,8.0,Calm,Calm,-,N/A,,Clear,0,2013-07-08 12:51:00
6:51 AM,64.0,60.1,87,29.89,9.0,Calm,Calm,-,N/A,,Clear,0,2013-07-08 13:51:00
7:51 AM,66.9,61.0,81,29.91,10.0,South,3.5,-,N/A,,Clear,190,2013-07-08 14:51:00
8:51 AM,69.1,61.0,75,29.92,10.0,Variable,3.5,-,N/A,,Clear,0,2013-07-08 15:51:00
9:51 AM,70.0,61.0,73,29.92,10.0,WSW,6.9,-,N/A,,Partly Cloudy,240,2013-07-08 16:51:00
10:51 AM,70.0,61.0,73,29.93,10.0,SW,6.9,-,N/A,,Partly Cloudy,230,2013-07-08 17:51:00
11:51 AM,73.9,61.0,64,29.93,10.0,WSW,6.9,-,N/A,,Clear,250,2013-07-08 18:51:00
12:51 PM,73.9,60.1,62,29.92,10.0,SW,8.1,-,N/A,,Clear,230,2013-07-08 19:51:00
1:51 PM,73.0,60.1,64,29.92,10.0,WSW,9.2,-,N/A,,Clear,240,2013-07-08 20:51:00
2:51 PM,72.0,60.1,66,29.91,10.0,WSW,9.2,17.3,N/A,,Clear,240,2013-07-08 21:51:00
3:51 PM,72.0,60.1,66,29.89,10.0,WSW,10.4,-,N/A,,Clear,240,2013-07-08 22:51:00
4:51 PM,72.0,60.1,66,29.89,10.0,WSW,9.2,-,N/A,,Clear,250,2013-07-08 23:51:00
5:51 PM,71.1,60.1,68,29.86,10.0,SW,6.9,-,N/A,,Clear,220,2013-07-09 00:51:00
6:51 PM,69.1,60.1,73,29.87,10.0,WSW,5.8,-,N/A,,Clear,240,2013-07-09 01:51:00
7:51 PM,68.0,60.1,76,29.87,10.0,South,4.6,-,N/A,,Clear,190,2013-07-09 02:51:00
8:51 PM,68.0,60.1,76,29.88,10.0,SSE,3.5,-,N/A,,Clear,150,2013-07-09 03:51:00
9:51 PM,66.9,60.1,79,29.90,10.0,Calm,Calm,-,N/A,,Clear,0,2013-07-09 04:51:00
10:51 PM,66.0,60.1,81,29.91,10.0,Calm,Calm,-,N/A,,Clear,0,2013-07-09 05:51:00
11:51 PM,66.9,60.1,79,29.92,10.0,Calm,Calm,-,N/A,,Clear,0,2013-07-09 06:51:00